Hourly Weather Roundup
Issued by NWS Central Illinois

Home | Current Version | Previous Version | Graphics & Text | Print | Product List | Glossary On
Versions: 1 2 3 4 5 6 7 8 9 10 11 12 13 14 15 16 17 18 19 20 21 22 23 24 25 26 27 28 29 30 31 32 33 34 35 36 37 38 39 40 41 42 43 44 45 46 47 48 49 50
168
NZUS43 KILX 290310
HWRILX

AREA WEATHER ROUNDUP
NATIONAL WEATHER SERVICE, LINCOLN IL
1000 PM CDT THU JUL 28 2016


CITY           SKY/WX    TMP DP  RH WIND       PRES   REMARKS
BLOOMINGTON    CLEAR     72  71  97 CALM      29.92S
CHAMPAIGN      CLEAR     72  70  93 S5        29.91R
DANVILLE       CLEAR     70  70  98 CALM      29.89R
DECATUR        CLEAR     72  69  90 CALM      29.91R
EFFINGHAM      PTCLDY    71  71 100 CALM      29.93S
FLORA          CLEAR     75  74  95 CALM      29.92R
GALESBURG      CLEAR     71  67  88 CALM      29.93R
JACKSONVILLE   MOCLDY    74  70  87 CALM      29.93R
LACON          MOCLDY    71  69  92 CALM      29.90S
LAWRENCEVILLE  CLEAR     71  70  96 E5        29.91R
LITCHFIELD       N/A    N/A N/A N/A MISG        N/A
$$


CITY           SKY/WX    TMP DP  RH WIND       PRES   REMARKS
LINCOLN        PTCLDY    73  72  98 CALM      29.91R
MACOMB         CLEAR     68  67  94 W6        29.96R
MATTOON        CLOUDY    68  66  93 S3        29.91R
MT CARMEL AP   PTCLDY    70  69  95 CALM      29.92R
OLNEY-NOBLE AP CLOUDY    72  72 100 CALM      29.91S
PARIS          CLEAR     73  72  99 CALM      29.91S
PEORIA         CLEAR     74  69  85 CALM      29.92R
PONTIAC        PTCLDY    73  72  99 CALM      29.93R
RANTOUL        NOT AVBL
ROBINSON       CLEAR     73  70  92 SE5       29.91S
SPRINGFIELD    CLEAR     75  72  90 W3        29.91R
TAYLORVILLE    PTCLDY    72  71  98 MISG      29.91R
$$

...REGIONAL REPORTS...


CITY           SKY/WX    TMP DP  RH WIND       PRES   REMARKS
CHICAGO O`HARE PTCLDY    72  69  90 CALM      29.91F
KANKAKEE       PTCLDY    73  69  89 CALM      29.92S
MOLINE         CLEAR     76  66  71 NW8       29.91R
MOUNT STERLING CLEAR     70  67  89 NW6       29.94R
MOUNT VERNON   PTCLDY    72  64  78 MISG      29.91R
PITTSFIELD     CLEAR     74  69  87 NW6       29.95R
QUINCY         CLEAR     72  69  90 N6        29.94R
ROCKFORD       PTCLDY    71  65  81 NE9       29.94R
$$


CITY           SKY/WX    TMP DP  RH WIND       PRES   REMARKS
BURLINGTON     CLEAR     72  67  84 CALM      29.93R
CEDAR RAPIDS   CLEAR     69  68  96 NW7       29.94R
DES MOINES     PTCLDY    73  63  70 N7        29.97R
KIRKSVILLE     CLEAR     67  64  90 CALM      29.98R
OTTUMWA        CLEAR     68  63  84 NW6       29.95S
ST LOUIS       MOCLDY    81  71  71 N7        29.92R HX  85
$$


CITY           SKY/WX    TMP DP  RH WIND       PRES   REMARKS
TERRE HAUTE    PTCLDY    73  70  90 CALM      29.91R
EVANSVILLE     MOCLDY    71  69  93 CALM      29.92R
INDIANAPOLIS   PTCLDY    74  69  85 SW6       29.92R
LAFAYETTE      CLEAR     72  71  97 CALM      29.90R
MADISON        CLOUDY    70  62  76 E8        29.96R
MILWAUKEE      CLOUDY    68  63  84 N12       29.95R
$$






USA.gov is the U.S. government's official web portal to all federal, state and local government web resources and services.